Home > Time Zones > World Clock > Weather > Iran > Tehran > Past weeks

Flag for Iran Weather past 2 weeks in Tehran, Iran

Now
41 °F

Clear.


Feels Like: 38 °F
Forecast: 34 / 57 °F
Wind: 5 mph from Southeast

Location: Tehran-Mehrabad

Current Time: Feb 2, 2015 at 2:59:12 AM

Latest Report: Feb 2, 2015 at 2:30 AM


Visibility: 10 mi

Pressure: 30.07 "Hg

Humidity: 53%

Dew point: 25 °F

Location of TehranLocation

Historic Weather in Tehran — Graph

°F

Tehran temperature yesterday

Maximum temperature yesterday: 57 °F (at 2:30 PM)
Minimum temperature yesterday: 37 °F (at 5:30 AM)
Average temperature yesterday: 48 °F

Past Weeks' High & Low Weather Summary

 TemperatureHumidityPressure
High57 °F (Jan 30, 2:30 PM)87% (Jan 31, 5:00 AM)30.36 "Hg (Jan 31, 5:00 AM)
Low32 °F (Jan 21, 7:00 AM)19% (Jan 21, 3:00 PM)29.89 "Hg (Jan 31, 3:30 AM)
Average44 °F47%30.12 "Hg
* Reported Jan 18 1:30 AM — Feb 2 2:00 AM, Tehran, Weather by CustomWeather, © 2014

Note: Actual official high and low records may vary slightly from our data, if they occured in-between our weather recording intervals... More about our weather records

Advertising

Tehran weather history for previous 24 hours

 ConditionsComfort  
Time TempWeatherWind HumidityBarometerVisibility
2:00 AM
Feb 2
43 °FClear.5 mph53%30.07 "Hg10 mi
1:30 AM43 °FClear.No wind53%30.07 "Hg10 mi
1:00 AM45 °FClear.5 mph46%30.07 "Hg10 mi
12:30 AM46 °FClear.7 mph43%30.07 "Hg10 mi
12:00 AM46 °FClear.7 mph43%30.07 "Hg10 mi
11:30 PM
Feb 1
46 °FClear.7 mph46%30.07 "Hg10 mi
11:00 PM46 °FClear.7 mph43%30.07 "Hg10 mi
10:30 PM48 °FClear.9 mph40%30.07 "Hg10 mi
10:00 PM50 °FClear.7 mph35%30.07 "Hg10 mi
9:30 PM50 °FClear.5 mph37%30.07 "Hg10 mi
9:00 PM50 °FClear.5 mph35%30.07 "Hg10 mi
8:30 PM52 °FClear.7 mph32%30.07 "Hg10 mi
8:00 PM52 °FClear.7 mph32%30.07 "Hg10 mi
7:30 PM52 °FClear.7 mph32%30.07 "Hg10 mi
6:55 PM52 °FClear.12 mph32%30.04 "Hg10 mi
6:30 PM54 °FClear.12 mph30%30.04 "Hg10 mi
6:00 PM54 °FPassing clouds.12 mph30%30.04 "HgN/A
5:30 PM55 °FPassing clouds.16 mph26%30.01 "HgN/A
5:00 PM55 °FPassing clouds.14 mph26%30.01 "HgN/A
4:25 PM57 °FPassing clouds.18 mph23%30.01 "HgN/A
4:00 PM57 °FPassing clouds.16 mph25%30.01 "HgN/A
3:30 PM57 °FPassing clouds.23 mph25%30.01 "HgN/A
3:00 PM57 °FSunny.18 mph21%30.01 "Hg10 mi
2:30 PM57 °FSunny.18 mph21%30.01 "Hg10 mi
1:50 PM55 °FSunny.12 mph24%30.01 "Hg10 mi
1:25 PM55 °FSunny.12 mph24%30.01 "Hg10 mi
1:00 PM54 °FSunny.9 mph30%30.04 "Hg10 mi
12:30 PM52 °FSunny.5 mph32%30.04 "Hg10 mi
12:00 PM50 °FSunny.9 mph35%30.07 "Hg10 mi
11:30 AM48 °FSunny.9 mph40%30.07 "Hg10 mi
10:30 AM46 °FSunny.5 mph46%30.09 "Hg10 mi
9:30 AM45 °FSunny.7 mph46%30.09 "Hg10 mi
9:00 AM45 °FSunny.5 mph46%30.09 "Hg10 mi
8:30 AM41 °FSunny.5 mph57%30.09 "Hg10 mi
8:00 AM37 °FScattered clouds.7 mph60%30.09 "HgN/A
7:30 AM39 °FPassing clouds.5 mph56%30.07 "HgN/A
6:30 AM39 °FPassing clouds.No wind52%30.07 "HgN/A
6:00 AM39 °FPassing clouds.No wind61%30.04 "HgN/A
5:30 AM37 °FPassing clouds.No wind65%30.04 "HgN/A
5:00 AM39 °FPassing clouds.No wind56%30.04 "HgN/A
4:30 AM41 °FPassing clouds.5 mph53%30.04 "HgN/A
4:00 AM39 °FPassing clouds.No wind56%30.04 "HgN/A
3:30 AM39 °FPassing clouds.No wind56%30.04 "HgN/A
3:00 AM39 °FPassing clouds.No wind56%30.04 "HgN/A
2:30 AM41 °FPassing clouds.5 mph49%30.04 "HgN/A
2:00 AM41 °FClear.5 mph53%30.04 "Hg10 mi
Weather by CustomWeather, © 2014

See weather overviewHow to use our weather pages